Location: Solon
(41.3849°N, 81.4081°W)
Time: 05:20:22
(UTC-04:00)

CZ-2C R/B - Visible Passes

Search period start: 29 March 2015 00:00
Search period end: 08 April 2015 00:00
Orbit: 704 x 910 km, 98.1° (Epoch: 28 March)

Date Brightness Start Highest point End Pass type
(mag) Time Alt. Az. Time Alt. Az. Time Alt. Az.
29 Mar 5.6 03:06:59 14° N 03:06:59 14° N 03:07:46 10° N visible
30 Mar 5.8 02:41:55 13° NNE 02:41:55 13° NNE 02:42:34 10° NNE visible
30 Mar 5.4 04:22:59 10° NNW 04:22:59 10° NNW 04:23:04 10° NNW visible
31 Mar 5.3 03:57:55 14° NNW 03:57:55 14° NNW 03:58:37 10° NNW visible
01 Apr 5.3 03:32:50 17° N 03:32:50 17° N 03:33:56 10° N visible
02 Apr 5.4 03:07:46 17° N 03:07:46 17° N 03:09:02 10° N visible
03 Apr 5.6 02:42:42 15° NNE 02:42:42 15° NNE 02:43:51 10° NNE visible
03 Apr 5.2 04:23:46 13° NNW 04:23:46 13° NNW 04:24:16 10° NNW visible
04 Apr 5.8 02:17:37 11° NE 02:17:37 11° NE 02:18:10 10° NNE visible
04 Apr 5.0 03:58:41 17° NNW 03:58:41 17° NNW 03:59:51 10° NNW visible
05 Apr 5.0 03:33:37 21° N 03:33:37 21° N 03:35:11 10° N visible
06 Apr 5.1 03:08:32 21° NNE 03:08:32 21° NNE 03:10:17 10° N visible
07 Apr 5.4 02:43:27 18° NNE 02:43:27 18° NNE 02:45:08 10° NNE visible
07 Apr 5.0 04:24:31 15° NW 04:24:31 15° NW 04:25:28 10° NNW visible
